Location: Unspecified
(40.9447°N, 78.9903°W)
Time: 14:35:09
(UTC-05:00)

Envisat - Visible Passes

Search period start: 19 January 2022 00:00
Search period end: 29 January 2022 00:00
Orbit: 764 x 766 km, 98.2° (Epoch: 19 January)

Date Brightness Start Highest point End Pass type
(mag) Time Alt. Az. Time Alt. Az. Time Alt. Az.
19 Jan 5.9 03:46:39 10° ENE 03:48:34 12° E 03:50:30 10° ESE visible
19 Jan 2.8 05:23:02 10° N 05:28:08 76° WNW 05:33:11 10° SSW visible
20 Jan 3.8 04:46:19 10° NNE 04:51:13 48° E 04:56:07 10° S visible
20 Jan 4.2 06:26:10 10° NNW 06:29:53 21° WNW 06:33:34 10° WSW visible
20 Jan 6.0 17:42:01 10° SW 17:44:52 15° W 17:47:45 10° NW visible
21 Jan 5.2 04:10:15 10° NE 04:14:08 22° E 04:17:59 10° SE visible
21 Jan 3.2 05:48:31 10° N 05:53:19 43° WNW 05:58:05 10° SW visible
22 Jan 2.9 05:11:26 10° NNE 05:16:33 85° ESE 05:21:37 10° SSW visible
22 Jan 4.7 06:52:48 10° NW 06:54:49 12° WNW 06:56:50 10° W visible
23 Jan 4.3 04:34:52 10° NNE 04:39:35 37° E 04:44:17 10° SSE visible
23 Jan 3.9 06:14:15 10° NNW 06:18:24 26° WNW 06:22:32 10° WSW visible
24 Jan 5.5 03:59:10 10° NE 04:02:26 17° E 04:05:40 10° SE visible
24 Jan 3.0 05:36:48 10° N 05:41:46 55° WNW 05:46:43 10° SSW visible
25 Jan 3.2 04:59:53 10° NNE 05:04:57 67° ESE 05:09:59 10° S visible
25 Jan 4.5 06:40:27 10° NNW 06:43:23 16° WNW 06:46:19 10° W visible
25 Jan 6.5 17:57:49 10° W 17:58:44 10° W 17:59:39 10° WNW visible
26 Jan 4.7 04:23:30 10° NE 04:27:56 29° E 04:32:19 10° SSE visible
26 Jan 3.6 06:02:25 10° N 06:06:54 32° WNW 06:11:22 10° SW visible
27 Jan 5.8 03:48:23 10° ENE 03:50:42 13° E 03:53:02 10° ESE visible
27 Jan 2.8 05:25:09 10° N 05:30:13 71° WNW 05:35:15 10° SSW visible
28 Jan 3.7 04:48:22 10° NNE 04:53:19 52° E 04:58:16 10° S visible
28 Jan 4.2 06:28:22 10° NNW 06:31:56 20° WNW 06:35:29 10° WSW visible
